This is the latest recevied weather packets stored in our database for station/object KC4JIR. If no packets are shown the sender has not sent any weather packets the latest 10 day(s).
| Time | Temp. | Humidity | Pressure | Rain* | Wind** | Luminosity | Snow |
|---|---|---|---|---|---|---|---|
| 1778097717 | 30° C | 47% | 1012.1 hPa | 0 mm | - | 241 W/m² | - |
| 1778097413 | 30° C | 46% | 1012.3 hPa | 0 mm | - | 188 W/m² | - |
| 1778097110 | 30.56° C | 46% | 1012.1 hPa | 0 mm | - | 580 W/m² | - |
| 1778096807 | 30.56° C | 46% | 1012.1 hPa | 0 mm | - | 419 W/m² | - |
| 1778096503 | 30.56° C | 44% | 1012.4 hPa | 0 mm | - | 511 W/m² | - |
| 1778096201 | 30° C | 47% | 1012.2 hPa | 0 mm | - | 187 W/m² | - |
| 1778095898 | 30° C | 46% | 1012.4 hPa | 0 mm | - | 183 W/m² | - |
| 1778095595 | 30.56° C | 46% | 1012.2 hPa | 0 mm | - | 603 W/m² | - |
| 1778095291 | 30.56° C | 45% | 1012.4 hPa | 0 mm | - | 617 W/m² | - |
| 1778094988 | 30.56° C | 45% | 1012.3 hPa | 0 mm | - | 617 W/m² | - |
| 1778094683 | 30.56° C | 42% | 1012.4 hPa | 0 mm | - | 699 W/m² | - |
| 1778094381 | 30.56° C | 44% | 1012.1 hPa | 0 mm | - | 696 W/m² | - |
| 1778094078 | 30.56° C | 44% | 1012.5 hPa | 0 mm | - | 696 W/m² | - |
| 1778093776 | 30.56° C | 46% | 1012.4 hPa | 0 mm | - | 673 W/m² | - |
| 1778093471 | 30.56° C | 44% | 1012.4 hPa | 0 mm | - | 671 W/m² | - |
| 1778093169 | 30.56° C | 45% | 1012.4 hPa | 0 mm | - | 735 W/m² | - |
| 1778092866 | 30.56° C | 45% | 1012.8 hPa | 0 mm | - | 735 W/m² | - |
| 1778092563 | 30.56° C | 43% | 1012.8 hPa | 0 mm | - | 744 W/m² | - |
| 1778092258 | 30° C | 43% | 1013 hPa | 0 mm | - | 762 W/m² | - |
| 1778091955 | 30.56° C | 46% | 1012.9 hPa | 0 mm | - | 760 W/m² | - |
| 1778091647 | 30.56° C | 45% | 1012.8 hPa | 0 mm | - | 755 W/m² | - |
| 1778091345 | 30° C | 47% | 1012.8 hPa | 0 mm | - | 728 W/m² | - |
| 1778091042 | 30° C | 48% | 1012.9 hPa | 0 mm | - | 711 W/m² | - |
| 1778090738 | 29.44° C | 48% | 1012.8 hPa | 0 mm | - | 344 W/m² | - |
| 1778090435 | 29.44° C | 50% | 1012.8 hPa | 0 mm | - | 658 W/m² | - |
* Rain latest hour (hover to see other rain measurements)
** Current wind speed in m/s (hover to see current wind gust speed)